Latest Coastal Weather Observations for Bedout Island

IDW60701

Issued at 10:03 pm WST Friday 30 July 2021 (issued every 10 minutes, with the page automatically refreshed every 10 minutes)

About coastal observations | Map of coastal stations | Coastal observations for WA | Marine services | Other Formats
Station Details ID: 004100 Name: BEDOUT ISLAND Lat: -19.59 Lon: 119.10 Height: 8.6 m
Data from the previous 72 hours. | See also: Recent months at Bedout Island
Date/Time
WST
Wind Sea
Height
m
Swell Vis
km
Cloud Weather Temp
°C
Press
MSL
hPa
Rain since
9am
mm
Dir  Spd
kts
Gust
kts
Height
m
Period
s
Dir
30/10:00pm W 17 19 - - - - - - - 23.1 1015.8 -
30/09:30pm W 16 19 - - - - - - - 22.9 1015.7 -
30/09:00pm W 17 19 - - - - - - - 23.0 1015.9 -
30/08:30pm W 18 20 - - - - - - - 23.0 1015.9 -
30/08:00pm W 17 19 - - - - - - - 23.0 1015.6 -
30/07:30pm W 16 18 - - - - - - - 23.1 1015.2 -
30/07:00pm W 16 18 - - - - - - - 23.0 1014.9 -
30/06:30pm W 16 18 - - - - - - - 23.0 1014.5 -
30/06:00pm W 14 16 - - - - - - - 23.0 1014.2 -
30/05:30pm W 14 16 - - - - - - - 23.5 1014.1 -
30/05:00pm WSW 14 17 - - - - - - - 23.9 1013.9 -
30/04:30pm WSW 14 17 - - - - - - - 24.5 1013.7 -
30/04:00pm WSW 14 17 - - - - - - - 25.0 1013.4 -
30/03:30pm WSW 13 14 - - - - - - - 25.4 1013.4 -
30/03:00pm WSW 13 15 - - - - - - - 25.5 1013.3 -
30/02:30pm SW 12 14 - - - - - - - 25.5 1013.4 -
30/02:00pm SW 12 15 - - - - - - - 26.0 1013.7 -
30/01:30pm SW 11 13 - - - - - - - 26.1 1013.8 -
30/01:00pm SW 11 13 - - - - - - - 25.8 1014.2 -
30/12:30pm SW 11 13 - - - - - - - 25.7 1014.7 -
30/12:00pm SW 10 11 - - - - - - - 25.6 1015.0 -
30/11:30am SSW 10 12 - - - - - - - 25.9 1015.4 -
30/11:00am SSW 10 12 - - - - - - - 25.6 1015.7 -
30/10:30am SSW 10 12 - - - - - - - 25.3 1016.0 -
30/10:00am SSW 10 12 - - - - - - - 24.8 1016.4 -
30/09:30am SW 10 13 - - - - - - - 24.8 1016.4 -
30/09:00am SSW 11 14 - - - - - - - 24.5 1016.2 -
30/08:30am SSW 11 13 - - - - - - - 24.1 1015.9 -
30/08:00am SW 12 17 - - - - - - - 23.2 1015.6 -
30/07:30am WSW 10 11 - - - - - - - 23.1 1015.3 -
30/07:00am WSW 11 12 - - - - - - - 22.8 1015.1 -
30/06:30am WSW 11 12 - - - - - - - 22.6 1014.9 -
30/06:00am WSW 11 13 - - - - - - - 22.6 1014.6 -
30/05:30am WSW 12 14 - - - - - - - 22.7 1014.3 -
30/05:00am WSW 14 16 - - - - - - - 22.8 1014.1 -
30/04:30am WSW 16 18 - - - - - - - 22.8 1013.8 -
30/04:00am WSW 17 20 - - - - - - - 22.9 1013.8 -
30/03:30am WSW 18 21 - - - - - - - 23.1 1013.8 -
30/03:00am WSW 18 20 - - - - - - - 23.0 1013.8 -
30/02:30am WSW 17 19 - - - - - - - 22.9 1013.9 -
30/02:00am WSW 18 20 - - - - - - - 23.1 1014.1 -
30/01:30am WSW 18 20 - - - - - - - 23.1 1014.0 -
30/01:00am WSW 19 21 - - - - - - - 23.2 1014.2 -
30/12:30am WSW 18 21 - - - - - - - 23.3 1014.2 -
30/12:00am WSW 18 21 - - - - - - - 23.3 1014.4 -
 
Date/Time
WST
Wind Sea
Height
m
Swell Vis
km
Cloud Weather Temp
°C
Press
MSL
hPa
Rain since
9am
mm
Dir  Spd
kts
Gust
kts
Height
m
Period
s
Dir
29/11:30pm WSW 19 22 - - - - - - - 23.1 1014.4 -
29/11:00pm WSW 18 20 - - - - - - - 23.1 1014.5 -
29/10:30pm WSW 17 20 - - - - - - - 23.0 1014.5 -
29/10:00pm W 18 20 - - - - - - - 23.0 1014.5 -
29/09:30pm W 17 20 - - - - - - - 22.9 1014.5 -
29/09:00pm W 17 20 - - - - - - - 22.9 1014.5 -
29/08:30pm W 19 22 - - - - - - - 22.9 1014.2 -
29/08:00pm W 17 20 - - - - - - - 22.8 1013.9 -
29/07:30pm W 16 18 - - - - - - - 22.7 1013.8 -
29/07:00pm W 17 19 - - - - - - - 22.6 1013.6 -
29/06:30pm W 17 20 - - - - - - - 22.7 1013.5 -
29/06:00pm W 17 19 - - - - - - - 22.7 1013.4 -
29/05:30pm W 16 18 - - - - - - - 23.1 1013.3 -
29/05:00pm W 16 18 - - - - - - - 23.7 1013.4 -
29/04:30pm W 15 17 - - - - - - - 24.3 1013.3 -
29/04:00pm WSW 14 16 - - - - - - - 24.5 1013.4 -
29/03:30pm WSW 15 18 - - - - - - - 24.8 1013.3 -
29/03:00pm WSW 14 17 - - - - - - - 25.2 1013.6 -
29/02:30pm WSW 14 16 - - - - - - - 24.8 1013.6 -
29/02:00pm WSW 13 16 - - - - - - - 25.1 1013.9 -
29/01:30pm WSW 14 17 - - - - - - - 24.9 1014.5 -
29/01:00pm WSW 15 17 - - - - - - - 25.0 1014.9 -
29/12:30pm WSW 14 17 - - - - - - - 24.9 1015.4 -
29/12:00pm SW 14 16 - - - - - - - 24.5 1015.9 -
29/11:30am SW 16 18 - - - - - - - 24.8 1016.2 -
29/11:00am SW 17 21 - - - - - - - 24.0 1016.6 -
29/10:30am SW 18 21 - - - - - - - 23.7 1016.9 -
29/10:00am SW 19 22 - - - - - - - 23.7 1017.0 -
29/09:30am SSW 20 23 - - - - - - - 23.5 1017.0 -
29/09:00am SW 19 22 - - - - - - - 23.5 1016.9 -
29/08:30am SW 20 23 - - - - - - - 23.2 1016.5 -
29/08:00am SW 20 23 - - - - - - - 23.0 1016.2 -
29/07:30am SW 18 20 - - - - - - - 22.6 1015.8 -
29/07:00am SW 17 19 - - - - - - - 22.2 1015.4 -
29/06:30am SW 17 19 - - - - - - - 22.1 1015.1 -
29/06:00am SW 18 21 - - - - - - - 22.1 1014.8 -
29/05:30am SW 19 21 - - - - - - - 22.1 1014.7 -
29/05:00am SW 24 27 - - - - - - - 22.6 1014.2 -
29/04:30am SW 23 28 - - - - - - - 23.0 1014.0 -
29/04:00am SW 25 29 - - - - - - - 23.3 1014.0 -
29/03:30am SW 24 28 - - - - - - - 23.1 1014.0 -
29/03:00am SW 22 27 - - - - - - - 23.3 1014.2 -
29/02:30am WSW 22 26 - - - - - - - 23.2 1014.2 -
29/02:00am WSW 20 23 - - - - - - - 23.3 1014.4 -
29/01:30am WSW 20 23 - - - - - - - 23.4 1014.6 -
29/01:00am WSW 19 22 - - - - - - - 23.3 1014.9 -
29/12:30am WSW 21 24 - - - - - - - 23.3 1014.9 -
29/12:00am WSW 19 22 - - - - - - - 23.4 1014.8 -
 
Date/Time
WST
Wind Sea
Height
m
Swell Vis
km
Cloud Weather Temp
°C
Press
MSL
hPa
Rain since
9am
mm
Dir  Spd
kts
Gust
kts
Height
m
Period
s
Dir
28/11:30pm WSW 17 19 - - - - - - - 23.2 1014.9 -
28/11:00pm WSW 17 20 - - - - - - - 23.2 1014.9 -
28/10:30pm WSW 17 20 - - - - - - - 23.1 1014.9 -
28/10:00pm WSW 16 19 - - - - - - - 23.1 1014.7 -
28/09:30pm WSW 19 21 - - - - - - - 23.1 1014.6 -
28/09:00pm WSW 18 20 - - - - - - - 23.2 1014.5 -
28/08:30pm WSW 17 20 - - - - - - - 23.1 1014.4 -
28/08:00pm WSW 16 18 - - - - - - - 23.3 1014.2 -
28/07:30pm W 14 17 - - - - - - - 23.2 1013.9 -
28/07:00pm W 15 18 - - - - - - - 23.4 1013.5 -
28/06:30pm W 13 15 - - - - - - - 23.4 1013.3 -
28/06:00pm WSW 13 15 - - - - - - - 23.6 1013.2 -
28/05:30pm W 15 16 - - - - - - - 24.0 1013.1 -
28/05:00pm WNW 13 16 - - - - - - - 24.6 1013.1 -
28/04:30pm W 13 15 - - - - - - - 25.1 1013.0 -
28/04:00pm W 13 14 - - - - - - - 25.2 1012.8 -
28/03:30pm W 11 13 - - - - - - - 25.8 1012.8 -
28/02:30pm W 11 13 - - - - - - - 25.7 1012.9 -
28/02:00pm W 10 11 - - - - - - - 26.2 1013.0 -
28/01:30pm W 9 10 - - - - - - - 26.0 1013.3 -
28/01:00pm W 9 10 - - - - - - - 26.0 1013.7 -
28/12:30pm WSW 8 9 - - - - - - - 25.8 1014.1 -
28/12:00pm WSW 7 8 - - - - - - - 25.7 1014.4 -
28/11:30am WSW 7 8 - - - - - - - 25.5 1014.8 -
28/10:30am SW 7 8 - - - - - - - 25.2 1015.3 -
28/10:00am SW 8 9 - - - - - - - 25.1 1015.3 -
28/09:30am SW 8 10 - - - - - - - 25.0 1015.4 -
28/09:00am SW 10 11 - - - - - - - 24.7 1015.3 -
28/08:30am SW 9 11 - - - - - - - 24.2 1015.1 -
28/08:00am SW 10 11 - - - - - - - 23.6 1014.8 -
28/07:30am SW 11 12 - - - - - - - 22.9 1014.3 -
28/07:00am WSW 10 13 - - - - - - - 22.6 1013.9 -
28/06:30am WSW 13 14 - - - - - - - 22.5 1013.6 -
28/06:00am WSW 13 15 - - - - - - - 22.7 1013.3 -
28/05:30am WSW 14 16 - - - - - - - 22.7 1013.0 -
28/05:00am WSW 15 17 - - - - - - - 22.8 1012.8 -
28/04:30am WSW 16 18 - - - - - - - 22.8 1012.7 -
28/04:00am WSW 15 17 - - - - - - - 22.9 1012.5 -
28/03:30am WSW 16 19 - - - - - - - 22.9 1012.4 -
28/03:00am WSW 17 19 - - - - - - - 23.2 1012.5 -
28/02:30am WSW 15 18 - - - - - - - 23.2 1012.8 -
28/02:00am W 16 18 - - - - - - - 23.3 1013.0 -
28/01:30am W 16 18 - - - - - - - 23.2 1013.1 -
28/01:00am W 17 19 - - - - - - - 23.3 1013.4 -
28/12:30am W 17 19 - - - - - - - 23.2 1013.4 -
28/12:00am W 15 17 - - - - - - - 23.2 1013.6 -
 
Date/Time
WST
Wind Sea
Height
m
Swell Vis
km
Cloud Weather Temp
°C
Press
MSL
hPa
Rain since
9am
mm
Dir  Spd
kts
Gust
kts
Height
m
Period
s
Dir
27/11:30pm W 15 17 - - - - - - - 23.2 1013.7 -
27/11:00pm W 16 17 - - - - - - - 23.2 1013.7 -
27/10:30pm W 15 18 - - - - - - - 23.1 1013.8 -

Other formats

Comma delimited format used in spreadsheet applications
http://www.bom.gov.au/fwo/IDW60701/IDW60701.94310.axf

JavaScript Object Notation format (JSON) in row-major order
http://www.bom.gov.au/fwo/IDW60701/IDW60701.94310.json

Data quality

Most of these data are generated automatically and are frequently updated. Quality checks on data are not normally performed. It is possible for incorrect values to appear. Refer to information at About Latest Weather Observations and please check the disclaimer before using these data.